STARLINK-32667 (62201 NORAD) Tracking and Keplerian Element Data

This shows tracking and keplerian element data for the satellite.

Feedback or suggestion? Click here.




ElementValue
Catalog62201
NameSTARLINK-32667
Epoch Orbit1059
Epoch Day34.95080216
Epoch Year2025
RAAN3.9488
Inclination43.0023
Eccentricity6.5E-05
Argument of Perigee303.1867
Mean Anonmoly56.8924
Mean Motion15.3209383
Decay Rate1.864E-05
L11 62201U 24229K 25034.95080216 .00001864 00000+0 67575-4 0 9997
L22 62201 43.0023 3.9488 0000650 303.1867 56.8924 15.32093830 10599



Live tracking and technical data element details for STARLINK-32667 (NORAD 62201). STARLINK-32667 can be tracked NOW for your location showing map with azimuth and elevation plus other details from your city location.







IsCatalogInMostPopularTable: catalog: 62201, numindb: 25
Update: records affected: 1



GetName: 62201 STARLINK-32667

Hit Count: updated at: Mon, 19 May 2025 02:15:40 GMT